Regional Weather Roundup
Issued by NWS Sterling, VA

Home | Current Version | Previous Version | Graphics & Text | Print | Product List | Glossary On
Versions: 1 2 3 4 5 6 7 8 9 10 11 12 13 14 15 16 17 18 19 20 21 22 23 24 25 26 27 28 29 30 31 32 33 34 35 36 37 38 39 40 41 42 43 44 45 46 47 48 49 50
000
ASUS41 KLWX 050511
RWRLWX

REGIONAL WEATHER ROUNDUP
NATIONAL WEATHER SERVICE BALTIMORE MD/WASHINGTON DC
100 AM EDT TUE MAY 05 2015

Note: "FAIR" indicates few or no clouds below 12,000 feet
with no significant weather and/or obstructions to visibility.
 TC=TEMPERATURE CELSIUS

 * =Non NWS site. Station does not report precipitation (e.g. rain,
    snow, etc.), thunder, or fog.

DCZ001-MDZ009-015-VAZ040>042-051-053>054-050600-
WASHINGTON METRO

CITY           SKY/WX    TMP DP  RH WIND       PRES   REMARKS
WASHINGTON NAT MOCLDY    71  54  54 S9        30.21R
DULLES         PTCLDY    68  53  58 S10       30.20S
ANDREWS AFB    CLEAR     68  53  58 S13       30.21R
FT BELVOIR     CLEAR     64  55  72 SE2       30.21R
QUANTICO       CLEAR     70  55  59 SW9       30.23R
COLLEGE PARK*  CLEAR     72  52  49 S6        30.20S
LEESBURG*      CLEAR     68  55  64 S7        30.21S
MANASSAS*      CLEAR     66  55  68 S7        30.21S
GAITHERSBURG*  FAIR      70  52  52 S3        30.24S

$$

MDZ006>007-011-014-050600-
BALTIMORE METRO

CITY           SKY/WX    TMP DP  RH WIND       PRES   REMARKS
BWI AIRPORT    CLEAR     66  52  60 SW5       30.19S
MD SCIENCE CTR   N/A     67  53  61 MISG      30.20S
MARTIN STATE   CLEAR     63  57  82 SE6       30.21S
ANNAPOLIS      CLEAR     64  55  72 S3        30.20S
FORT MEADE*    CLEAR     55  54  94 SW5       30.22S

$$

MDZ012-015-019>023-050600-
MARYLAND EASTERN SHORE

CITY           SKY/WX    TMP DP  RH WIND       PRES   REMARKS
OCEAN CITY     CLEAR     65  54  67 SW13      30.26S
SALISBURY      CLEAR     64  51  62 SW9       30.25S
BAY BRIDGE AP*   N/A    N/A N/A N/A S8        30.21S
CAMBRIDGE*     CLEAR     68  54  60 S6        30.23S
EASTON*        CLEAR     69  56  63 SW9       30.26S

$$

MDZ017>025-050600-
SOUTHERN MARYLAND

CITY           SKY/WX    TMP DP  RH WIND       PRES   REMARKS
PATUXENT RIVER CLEAR     68  51  54 SW16      30.22S
ST INIGOES     CLEAR     69  53  56 S12       30.23S
LEONARDTOWN*   CLEAR     68  50  52 SW9       30.25R

$$

MDZ003>005-050600-
NORTH CENTRAL MARYLAND

CITY           SKY/WX    TMP DP  RH WIND       PRES   REMARKS
FREDERICK*     FAIR      63  48  59 S3        30.20S
HAGERSTOWN APT PTCLDY    68  50  52 S6        30.18R
WESTMINSTER*   FAIR      68  55  64 S7        30.19S

$$

MDZ501>502-050600-
WESTERN MARYLAND

CITY           SKY/WX    TMP DP  RH WIND       PRES   REMARKS
OAKLAND*       CLOUDY    61  55  82 NW3       30.30R
CUMBERLAND*    PTCLDY    72  46  40 CALM      30.25R

$$

VAZ025>031-050600-
SHENANDOAH VALLEY

CITY           SKY/WX    TMP DP  RH WIND       PRES   REMARKS
WINCHESTER*    PTCLDY    70  45  40 SW5       30.20S
FRONT ROYAL*   FAIR      63  52  67 S3        30.20R
LURAY*         FAIR      63  54  72 CALM      30.23R
NEW MARKET*    FAIR      60  53  78 SW5       30.22R
STAUNTON*      CLEAR     59  52  76 S3        30.27R
WAYNESBORO*    FAIR      60  50  69 CALM      30.26R

$$

WVZ021-048>050-054>055-050600-
EASTERN WEST VIRGINIA PANHANDLE

CITY           SKY/WX    TMP DP  RH WIND       PRES   REMARKS
MARTINSBURG    MOCLDY    63  52  67 SW3       30.19R
PETERSBURG*    CLEAR     55  49  79 CALM      30.24R

$$

VAZ036>039-050-050600-
CENTRAL FOOTHILLS

CITY           SKY/WX    TMP DP  RH WIND       PRES   REMARKS
CHARLOTTESVILL PTCLDY    65  53  65 S7        30.23R
CULPEPER*      NOT AVBL
ORANGE*        CLEAR     63  55  77 CALM      30.26R
GORDONSVILLE*  FAIR      62  55  75 W3        30.23S
WARRENTON*     FAIR      69  56  64 S7        30.21S

$$

VAZ055>057-050600-
NORTH AND CENTRAL PIEDMONT

CITY           SKY/WX    TMP DP  RH WIND       PRES   REMARKS
FREDERICKSBRG* CLEAR     70  55  59 SW8       30.22S
STAFFORD*      CLEAR     67  50  54 S5        30.26S

$$

NCZ024-NYZ072-PAZ021-071-VAZ022-071-050600-
OTHER REGIONAL OBSERVATIONS

CITY           SKY/WX    TMP DP  RH WIND       PRES   REMARKS
NEW YORK CITY  CLEAR     71  44  37 VRB7      30.19S
PHILADELPHIA   PTCLDY    67  49  52 S8        30.20S
PITTSBURGH     CLOUDY    63  60  90 S3        30.23R
ROANOKE        MOCLDY    65  52  62 CALM      30.30R
RICHMOND       CLEAR     68  52  56 S14G22    30.27R
RALEIGH        FAIR      65  54  67 SW8       30.34R

$$

ANZ530>537-050600-
MARINE OBSERVATIONS

STATION/POSITION TIME  TEMP    WIND        PRES
                       AIR SEA DIR/SP/G
                 (UTC) (F)     (DEG/KT/KT) (MB)
THOMAS PT LIGHT  0500   63 58  170/ 14/ 14 1023.5R
BALT KEY BRIDGE  0400   69     180/  6/  8 1022.1R
COVE POINT       0400   70     210/ 14/ 16 1024.0R
LEWISETTA        0400   70 67              1023.6R
SOLOMONS ISLAND  0406      62                N/A
PINEY POINT      0400          220/ 13/ 15   N/A

$$




USA.gov is the U.S. government's official web portal to all federal, state and local government web resources and services.